GW4824 Weather Reports


time (UTC)temp
F
wind
direction
speed
knots
gust
knots
rain 1hr
in
rain 24hr
in
rain mn
in
humidity
%
barometer
mb
20260504050311 48 115 0.0 0.0 0.00 0.00 0.00 73 1011.8
20260504045803 48 338 0.9 0.9 0.00 0.00 0.00 73 1012.1
20260504045304 48 139 0.9 0.9 0.00 0.00 0.00 73 1012.0
20260504044800 48 117 0.0 0.0 0.00 0.00 0.00 75 1011.8
20260504044257 48 179 1.7 1.7 0.00 0.00 0.00 72 1012.0
20260504043754 48 138 0.9 1.7 0.00 0.00 0.00 73 1012.0
20260504043251 48 145 0.9 0.9 0.00 0.00 0.00 72 1012.1
20260504042749 48 147 0.9 0.9 0.00 0.00 0.00 74 1012.3
20260504042245 48 123 0.0 0.9 0.00 0.00 0.00 73 1012.0
20260504041741 48 124 0.9 0.9 0.00 0.00 0.00 72 1012.1
20260504041237 48 116 0.0 0.0 0.00 0.00 0.00 72 1012.1
20260504040733 48 179 0.9 0.9 0.00 0.00 0.00 73 1012.0
20260504040231 48 212 0.9 0.9 0.00 0.00 0.00 74 1012.2
20260504035727 47 108 0.0 0.0 0.00 0.00 0.00 73 1012.2
20260504035225 47 118 0.0 0.0 0.00 0.00 0.00 75 1012.3
20260504034722 48 97 0.0 0.0 0.00 0.00 0.00 74 1012.4
20260504034219 47 123 0.9 0.9 0.00 0.00 0.00 74 1012.5
20260504033717 47 107 0.0 0.0 0.00 0.00 0.00 76 1012.4
20260504033214 47 106 0.0 0.0 0.00 0.00 0.00 76 1012.5
20260504032711 47 111 0.0 0.0 0.00 0.00 0.00 77 1012.6
20260504032208 47 98 0.0 0.0 0.00 0.00 0.00 75 1012.4
20260504031705 47 112 0.0 0.0 0.00 0.00 0.00 77 1012.5
20260504031201 48 113 0.0 0.9 0.00 0.00 0.00 74 1012.5
20260504030657 47 81 0.0 0.9 0.00 0.00 0.00 74 1012.4
20260504030155 47 128 0.0 0.9 0.00 0.00 0.00 75 1012.9
20260504025651 48 117 0.0 0.0 0.00 0.00 0.00 73 1012.8
20260504025148 48 117 0.0 0.0 0.00 0.00 0.00 73 1012.8
20260504024646 48 115 0.0 0.0 0.00 0.00 0.00 72 1013.0
20260504024142 49 119 0.0 0.0 0.00 0.00 0.00 74 1013.1
20260504023639 49 117 0.0 0.0 0.00 0.00 0.00 71 1012.9
20260504023135 50 98 0.0 0.0 0.00 0.00 0.00 71 1012.9
20260504022631 50 114 0.0 0.0 0.00 0.00 0.00 67 1013.0
20260504022127 50 111 0.0 0.0 0.00 0.00 0.00 66 1012.9
20260504021625 50 128 0.0 0.9 0.00 0.00 0.00 65 1012.9
20260504021121 50 112 0.0 0.0 0.00 0.00 0.00 66 1012.9
20260504020619 50 42 0.0 0.9 0.00 0.00 0.00 68 1013.0
20260504020115 50 155 0.9 1.7 0.00 0.00 0.00 65 1012.9
20260504015611 50 114 0.0 0.0 0.00 0.00 0.00 66 1013.2
20260504015107 50 156 1.7 1.7 0.00 0.00 0.00 65 1012.8
20260504014603 50 158 0.9 0.9 0.00 0.00 0.00 65 1013.1
20260504014101 50 117 0.0 0.0 0.00 0.00 0.00 70 1013.0
20260504013558 50 112 0.0 0.0 0.00 0.00 0.00 69 1012.8
20260504013055 50 113 0.0 0.0 0.00 0.00 0.00 63 1012.9
20260504012552 50 115 0.0 0.0 0.00 0.00 0.00 65 1012.9
20260504012050 51 129 0.0 0.9 0.00 0.00 0.00 64 1012.9
20260504011547 51 113 0.0 0.0 0.00 0.00 0.00 63 1013.0
20260504011043 51 133 0.0 0.9 0.00 0.00 0.00 63 1012.8
20260504010539 51 124 0.9 1.7 0.00 0.00 0.00 61 1012.8
20260504010035 51 150 0.9 1.7 0.00 0.00 0.00 62 1013.1
20260504005532 51 236 1.7 2.6 0.00 0.00 0.00 62 1013.0
20260504005029 51 94 1.7 1.7 0.00 0.00 0.00 63 1013.1
20260504004527 51 266 1.7 1.7 0.00 0.00 0.00 60 1013.2
20260504004024 51 279 1.7 2.6 0.00 0.00 0.00 61 1013.2
20260504003520 51 174 0.9 0.9 0.00 0.00 0.00 61 1013.1
20260504003017 51 200 1.7 2.6 0.00 0.00 0.00 60 1012.9
20260504002514 51 203 1.7 2.6 0.00 0.00 0.00 60 1012.9
20260504002011 52 176 0.9 0.9 0.00 0.00 0.00 59 1013.2
20260504001509 52 158 2.6 6.1 0.00 0.00 0.00 56 1013.1
20260504001005 53 245 1.7 2.6 0.00 0.00 0.00 54 1012.9
20260504000502 54 218 3.5 5.2 0.00 0.00 0.00 50 1012.5
20260503235959 55 264 3.5 3.5 0.00 0.00 0.00 48 1012.6
20260503235457 55 183 1.7 2.6 0.00 0.00 0.00 46 1012.4
20260503234954 55 269 0.9 1.7 0.00 0.00 0.00 47 1012.4
20260503234452 55 344 1.7 2.6 0.00 0.00 0.00 45 1012.4
20260503233950 56 190 0.9 0.9 0.00 0.00 0.00 46 1012.6
20260503233446 56 276 0.9 0.9 0.00 0.00 0.00 45 1012.4
20260503232942 56 274 2.6 2.6 0.00 0.00 0.00 43 1012.5
20260503232439 56 228 0.9 1.7 0.00 0.00 0.00 42 1012.4
20260503231937 56 290 1.7 1.7 0.00 0.00 0.00 44 1012.6
20260503231434 56 175 0.9 1.7 0.00 0.00 0.00 46 1012.5
20260503230931 56 201 1.7 1.7 0.00 0.00 0.00 44 1012.5
20260503230427 56 202 1.7 2.6 0.00 0.00 0.00 44 1012.6
20260503225925 57 256 2.6 2.6 0.00 0.00 0.00 43 1012.4
20260503225422 57 209 1.7 1.7 0.00 0.00 0.00 41 1012.6
20260503224917 57 189 1.7 1.7 0.00 0.00 0.00 42 1012.9
20260503224414 57 286 1.7 1.7 0.00 0.00 0.00 44 1012.9
20260503223912 57 160 0.9 0.9 0.00 0.00 0.00 44 1013.0
20260503223410 57 169 0.0 0.9 0.00 0.00 0.00 46 1013.0
20260503222910 57 142 1.7 1.7 0.00 0.00 0.00 41 1012.9
20260503222409 57 66 0.9 0.9 0.00 0.00 0.00 45 1013.1
20260503221907 57 250 1.7 2.6 0.00 0.00 0.00 41 1013.2
20260503221405 57 89 1.7 2.6 0.00 0.00 0.00 41 1013.0
20260503220901 57 167 1.7 1.7 0.00 0.00 0.00 44 1012.9
20260503220358 57 175 1.7 2.6 0.00 0.00 0.00 45 1013.1
20260503215855 58 161 0.9 1.7 0.00 0.00 0.00 43 1013.2
20260503215352 58 103 1.7 2.6 0.00 0.00 0.00 43 1013.2
20260503214849 58 208 0.0 0.9 0.00 0.00 0.00 41 1013.1
20260503214347 58 143 2.6 3.5 0.00 0.00 0.00 39 1013.3
20260503213844 58 152 1.7 1.7 0.00 0.00 0.00 40 1013.2
20260503213341 58 151 1.7 3.5 0.00 0.00 0.00 39 1013.4
20260503212838 59 312 1.7 2.6 0.00 0.00 0.00 42 1013.2
20260503212336 59 342 2.6 2.6 0.00 0.00 0.00 39 1013.3
20260503211833 59 280 2.6 2.6 0.00 0.00 0.00 39 1013.4
20260503211330 59 258 0.9 1.7 0.00 0.00 0.00 40 1013.5
20260503210825 59 220 1.7 2.6 0.00 0.00 0.00 43 1013.4
20260503210322 59 182 0.9 1.7 0.00 0.00 0.00 42 1013.4
20260503205817 59 202 0.9 1.7 0.00 0.00 0.00 43 1013.4
20260503205314 59 249 1.7 2.6 0.00 0.00 0.00 38 1013.2
20260503204811 60 260 2.6 3.5 0.00 0.00 0.00 37 1013.3
20260503204309 59 222 0.9 1.7 0.00 0.00 0.00 38 1013.3
20260503203806 59 94 0.9 0.9 0.00 0.00 0.00 39 1013.5
20260503203303 59 220 1.7 2.6 0.00 0.00 0.00 38 1013.7
20260503202759 59 171 0.9 1.7 0.00 0.00 0.00 41 1013.5
20260503202258 59 237 2.6 3.5 0.00 0.00 0.00 37 1013.7
20260503201755 61 113 1.7 1.7 0.00 0.00 0.00 39 1013.5
20260503201252 60 329 1.7 2.6 0.00 0.00 0.00 38 1013.7
20260503200749 60 315 0.9 1.7 0.00 0.00 0.00 37 1013.6
20260503200245 61 229 3.5 3.5 0.00 0.00 0.00 37 1013.7
20260503195742 61 297 2.6 3.5 0.00 0.00 0.00 39 1014.0
20260503195239 60 242 2.6 3.5 0.00 0.00 0.00 38 1013.8
20260503194737 60 270 2.6 3.5 0.00 0.00 0.00 36 1013.9
20260503194232 60 284 2.6 2.6 0.00 0.00 0.00 37 1013.9
20260503193729 60 117 0.9 1.7 0.00 0.00 0.00 40 1014.1
20260503193225 62 170 1.7 1.7 0.00 0.00 0.00 40 1014.3
20260503192721 62 138 0.9 0.9 0.00 0.00 0.00 41 1014.2
20260503192216 61 176 0.9 0.9 0.00 0.00 0.00 38 1014.4
20260503191713 60 305 1.7 1.7 0.00 0.00 0.00 46 1014.5
20260503191210 61 176 0.9 0.9 0.00 0.00 0.00 41 1014.6
20260503190707 59 209 2.6 2.6 0.00 0.00 0.00 40 1014.5
20260503190204 59 306 4.3 5.2 0.00 0.00 0.00 37 1014.7
20260503185701 59 218 0.9 0.9 0.00 0.00 0.00 41 1014.7
20260503185156 59 246 1.7 2.6 0.00 0.00 0.00 42 1014.9
20260503184651 60 282 1.7 2.6 0.00 0.00 0.00 36 1014.9
20260503184148 60 315 1.7 2.6 0.00 0.00 0.00 37 1014.8
20260503183644 58 221 0.9 0.9 0.00 0.00 0.00 43 1015.1
20260503183142 59 204 0.9 1.7 0.00 0.00 0.00 42 1015.2
20260503182640 59 188 1.7 2.6 0.00 0.00 0.00 42 1015.3
20260503182139 60 206 3.5 3.5 0.00 0.00 0.00 38 1015.2
20260503181635 60 259 2.6 2.6 0.00 0.00 0.00 40 1015.4
20260503181131 59 192 2.6 3.5 0.00 0.00 0.00 39 1015.5
20260503180628 59 130 1.7 1.7 0.00 0.00 0.00 38 1015.3
20260503180126 58 290 1.7 2.6 0.00 0.00 0.00 38 1015.5
20260503175622 57 237 2.6 2.6 0.00 0.00 0.00 41 1015.5
20260503175119 58 272 1.7 1.7 0.00 0.00 0.00 39 1015.7
20260503174616 58 170 0.9 1.7 0.00 0.00 0.00 41 1015.8
20260503174114 58 114 0.9 0.9 0.00 0.00 0.00 41 1015.8
20260503173608 58 197 3.5 3.5 0.00 0.00 0.00 40 1015.9
20260503173105 57 152 0.9 1.7 0.00 0.00 0.00 45 1015.8
20260503172602 57 336 2.6 2.6 0.00 0.00 0.00 43 1016.1
20260503172100 58 145 0.0 0.9 0.00 0.00 0.00 47 1016.1
20260503171555 56 297 1.7 1.7 0.00 0.00 0.00 47 1016.0
20260503171053 59 151 0.9 0.9 0.00 0.00 0.00 40 1016.1
20260503170549 58 259 1.7 1.7 0.00 0.00 0.00 46 1016.0
20260503150942 54 180 1.7 1.7 0.00 0.00 0.00 50 1017.0
20260503150439 54 156 0.9 1.7 0.00 0.00 0.00 49 1016.9
20260503131331 46 134 0.0 0.9 0.00 0.00 0.00 65 1017.6
20260503130829 45 117 0.0 0.0 0.00 0.00 0.00 69 1017.5
20260503130326 45 121 0.0 0.9 0.00 0.00 0.00 71 1017.7
20260503110720 32 106 0.0 0.0 0.00 0.00 0.00 95 1016.7
20260503110217 32 106 0.0 0.0 0.00 0.00 0.00 95 1016.6
20260503100144 31 100 0.0 0.0 0.00 0.00 0.00 93 1016.2
20260503081538 32 105 0.0 0.0 0.00 0.00 0.00 92 1016.2
20260503081036 32 105 0.0 0.0 0.00 0.00 0.00 92 1016.2
20260503080532 32 105 0.0 0.0 0.00 0.00 0.00 92 1016.3
20260503072506 32 106 0.0 0.0 0.00 0.00 0.00 96 1016.1
20260503072003 32 106 0.0 0.0 0.00 0.00 0.00 96 1016.2
20260503071500 32 106 0.0 0.0 0.00 0.00 0.00 96 1016.2
20260503070955 32 106 0.0 0.0 0.00 0.00 0.00 97 1016.1
20260503070453 32 106 0.0 0.0 0.00 0.00 0.00 97 1016.2